User: anonymous   Login
Location: Alsip
(41.6689°N, 87.7387°W)
Time: 21:38:04
(UTC+00:00)
Language:

CZ-4B R/B - Orbit

View from above orbital plane
View from above orbital plane
View from above satellite
View from above satellite

Ground track
Ground track

The orbit data is extracted from the following two-line orbital elements,

1 29093U 06015B   20269.72689118 +.00003559 +00000-0 +70150-4 0  9995
2 29093 097.6296 081.4898 0051979 319.9599 039.7822 15.46500687801987
Epoch (UTC): 25 September 2020 17:26:43
Eccentricity: 0.0051979
inclination: 97.6296°
perigee height: 391 km
apogee height: 462 km
right ascension of ascending node: 81.4898°
argument of perigee: 319.9599°
revolutions per day: 15.46500687
mean anomaly at epoch: 39.7822°
orbit number at epoch: 80198

The dashed part of the orbit path shows where the satellite is in the earth's shadow,  

DLR